User: anonymous   Login
Location: Karaa?a�
(36.7158°N, 30.4165°E)
Time: 12:20:20
(UTC+00:00)
Language:

GEOS 3 Rocket - Orbit

View from above orbital plane
View from above orbital plane
View from above satellite
View from above satellite

Ground track
Ground track

The orbit data is extracted from the following two-line orbital elements,

1  7735U 75027B   20190.87150036 -.00000151 +00000-0 +11451-4 0  9999
2  7735 114.9798 045.4552 0052054 302.4363 057.1691 14.24611644349373
Epoch (UTC): 08 July 2020 20:54:57
Eccentricity: 0.0052054
inclination: 114.9798°
perigee height: 772 km
apogee height: 847 km
right ascension of ascending node: 45.4552°
argument of perigee: 302.4363°
revolutions per day: 14.24611644
mean anomaly at epoch: 57.1691°
orbit number at epoch: 34937

The dashed part of the orbit path shows where the satellite is in the earth's shadow,  

DLR